Cloud_Cover
99 69 65 100 100 100 100 100 100 100 77 11 22 0 0 0 0 0 0 0 0 0 0 0 0 0 0 0 0 0 0 0 0 0 0 0 5 4 5 5 5 5 5 12 7 61 53
95 90 91 100 65 96 100 100 100 100 100 100 4 3 0 0 0 0 0 0 0 0 0 0 0 0 0 0 0 0 0 0 0 0 0 0 0 3 5 5 5 16 5 7 6 6 5
100 100 97 99 100 100 100 100 100 100 94 72 4 0 0 0 0 0 0 0 0 0 0 0 0 0 0 0 0 0 0 0 0 0 0 0 0 0 0 5 5 6 5 5 5 42 59
100 100 100 100 100 100 100 96 84 21 19 25 0 0 0 0 0 0 0 0 0 0 0 0 0 0 0 0 0 0 0 0 0 0 0 0 0 0 0 4 5 5 5 0 5 1 4
100 100 100 99 70 87 48 36 20 18 0 0 0 0 0 0 0 0 0 0 0 0 0 0 0 0 0 0 0 0 0 0 0 0 0 0 0 0 1 3 2 0 0 0 0 5 0
100 51 3 12 1 20 100 20 32 21 6 0 0 0 0 0 0 0 0 0 0 0 0 0 0 0 0 0 0 0 0 0 0 0 0 0 0 0 1 0 0 0 0 0 0 0 0
95 100 63 0 0 6 100 75 77 21 2 0 0 0 0 0 0 0 0 0 0 0 0 1 0 0 0 0 0 0 0 0 0 0 5 5 0 0 0 0 0 0 0 0 0 3 5
75 98 100 96 1 5 41 90 57 30 9 0 0 0 0 0 0 0 0 0 0 0 0 0 0 5 4 0 0 0 2 5 5 1 0 0 0 0 0 0 0 0 0 0 0 0 0
5 66 100 100 67 60 1 20 26 12 0 0 0 0 0 0 0 0 0 0 0 0 0 0 0 0 0 1 0 0 0 4 0 0 0 0 0 0 0 0 0 0 0 0 0 0 0
5 11 40 87 100 100 100 45 0 0 0 0 0 0 0 0 0 0 0 0 0 0 5 3 0 0 0 0 0 0 0 0 2 5 1 0 0 0 0 0 0 0 0 1 5 5 1
5 5 5 5 64 95 100 95 92 78 2 0 0 0 0 0 0 0 0 1 5 5 5 5 2 0 0 0 5 4 1 0 0 0 0 0 0 0 0 0 0 0 0 0 1 4 5
5 4 5 4 1 25 68 71 89 93 58 44 53 10 1 1 0 0 0 0 3 1 1 1 2 4 5 5 4 0 0 0 0 0 0 0 0 0 0 5 3 0 1 0 4 0 0
5 5 5 2 5 0 1 25 28 29 56 74 83 98 100 93 86 83 86 90 94 94 24 30 6 5 4 0 0 0 0 0 0 0 0 0 0 0 2 5 4 4 1 0 0 0 0
5 5 5 5 5 4 5 1 0 0 0 1 1 5 6 6 6 6 12 26 11 3 0 0 0 0 0 0 0 0 0 0 0 0 0 0 0 0 0 0 0 0 0 0 0 0 0
5 5 5 5 3 5 5 4 2 0 0 0 0 0 0 0 0 0 0 0 0 0 0 0 0 0 0 0 0 0 0 0 0 0 0 0 0 0 0 0 0 0 0 0 0 0 0
5 4 5 5 5 5 3 5 5 2 0 0 0 0 0 0 0 0 0 0 0 0 0 0 0 0 0 0 0 0 0 2 2 0 0 0 0 0 0 0 3 0 0 0 0 0 0
6 5 5 2 5 5 5 3 1 3 5 3 0 0 0 0 0 0 0 0 0 0 0 0 0 0 2 5 3 3 1 0 0 0 0 0 0 0 0 0 0 0 0 0 0 0 0
79 81 5 5 5 5 5 5 5 5 2 5 5 5 5 5 5 4 4 4 5 5 5 5 5 2 0 0 0 0 0 0 0 0 0 0 0 0 0 0 0 0 0 0 0 0 0
98 100 85 16 5 5 5 5 5 5 5 5 5 5 5 5 5 5 5 5 4 0 0 0 2 1 4 1 0 0 0 0 0 0 0 0 0 0 0 0 0 1 5 0 0 2 3
54 61 100 78 5 5 2 5 5 5 5 5 5 5 14 5 5 5 5 2 0 0 1 1 0 0 0 0 0 0 0 0 0 0 0 0 0 0 0 0 0 0 0 0 0 4 0
5 5 22 17 41 5 5 3 0 0 0 2 5 5 5 5 5 2 0 0 0 0 0 0 0 3 4 4 4 1 0 0 0 0 0 0 0 0 0 0 0 0 0 0 0 0 0
1 0 5 5 5 5 5 5 5 0 0 0 0 0 0 0 0 0 0 5 5 0 0 0 0 0 5 5 5 5 5 5 5 5 5 1 0 0 0 0 0 3 5 0 0 0 0
14 5 0 0 1 4 5 46 6 1 2 0 0 0 0 0 0 0 0 0 0 0 0 0 0 0 0 4 4 5 5 5 5 3 0 0 0 0 1 0 0 5 5 0 0 0 0
4 15 2 0 2 6 50 5 5 50 81 0 0 0 0 0 0 0 0 0 0 0 0 0 0 0 0 0 2 2 2 3 0 0 0 0 0 1 4 1 0 4 0 0 0 0 0
68 30 4 8 0 0 2 46 48 5 64 62 2 0 0 0 0 0 0 0 0 0 0 0 0 0 0 0 3 2 5 5 4 4 0 0 0 5 4 5 0 5 0 0 0 0 0
100 57 6 9 5 0 0 0 4 5 5 5 5 2 0 0 0 0 0 0 0 0 0 0 0 0 0 5 5 5 5 5 5 5 5 0 0 0 5 3 4 1 0 0 0 0 0
100 100 94 99 59 3 0 0 0 0 4 2 0 0 0 0 0 0 0 0 0 0 0 0 0 0 0 5 5 17 5 5 5 5 5 5 5 5 4 8 4 0 0 0 0 0 0
100 98 100 90 44 94 5 0 0 0 0 0 0 0 0 0 0 0 0 0 0 0 1 2 2 0 0 4 5 5 5 5 5 5 37 92 85 5 19 10 4 0 0 0 0 0 0
100 99 86 100 100 59 97 5 4 0 0 0 0 0 0 0 2 0 0 0 0 0 5 5 5 5 5 5 5 7 5 4 5 5 93 100 100 12 2 4 27 4 5 5 5 5 2